sat.trackr.live / text

‹ back to catalog

STARLINK-2429

NORAD 47838 · 2021-018BD

PAYLOAD ACTIVE UNKNOWN

§ Identity

Operator
Country
US
Launch date
2021-03-11
Launch site
AFETR
Launch vehicle
Mass (kg)
RCS (m²)

Purposes: comms

External: N2YO · Heavens-Above · Gunter

§ Orbital elements

Epoch: 2026-05-25T00:18:34.255008Z

Period
94.01 min
Inclination
53.1593°
Eccentricity
0.0001270
Mean motion
15.31692164 rev/d
Perigee alt
469.9 km
Apogee alt
471.6 km
Semi-major
6,848.9 km
B*
-1.9757e-5
RAAN
250.7684°
Arg perigee
73.3423°
Mean anomaly
286.7718°
Rev number
28,837

§ Raw data

STARLINK-24291 47838U 21018BD  26145.01289647 -.00000978  00000+0 -19757-4 0  99952 47838  53.1593 250.7684 0001270  73.3423 286.7718 15.31692164288377

JSON: /api/v1/satellites/47838 · /tle

For live sub-satellite position, see the globe view (requires WebGL).

§ Visibility from observer

Set your observer location to see the next 7 days of passes ≥ 10°. The values pass through the URL so the page stays shareable.

No JS? Fill the form by hand. The geolocation button needs JavaScript.